Tracking 28799 objects as of 18-Apr-2024
HD Live streaming from Space Station
objects crossing your sky now

ION SCV-003

Track ION SCV-003 now!
10-day predictions
ION SCV-003 is classified as:


NORAD ID: 48912
Int'l Code: 2021-059AK
Perigee: 447.5 km
Apogee: 456.7 km
Inclination: 97.6 °
Period: 93.5 minutes
Semi major axis: 6823 km
RCS: Unknown
Launch date: June 30, 2021
Source: Italy (IT)
Launch site: AIR FORCE EASTERN TEST RANGE (AFETR)

Uplink (MHz):
Downlink (MHz): 437.515
Beacon (MHz):
Mode: 1200bps FSK
Call sign:
Status: Inactive


Uplink (MHz):
Downlink (MHz): 400.360
Beacon (MHz):
Mode: 9600bps GFSK
Call sign:
Status: Inactive

Your satellite tracking list
Your tracking list is empty




NASA's NSSDC Master Catalog

Two Line Element Set (TLE):
1 48912U 21059AK  24108.86416147  .00055070  00000-0  13559-2 0  9995
2 48912  97.6080 255.6018 0006787 273.2326  86.8143 15.40388779156101
Source of the keplerian elements: AFSPC